ALDN64 YSSY-YBTH

Flight info

Callsign ALDN64
Flight time N/A
Altitude 20000
Route TESAT A576 KADOM W386 BTH
Aircraft PC21/L-SDFGRWY/S

Departure

Time 2026-05-07 04:53
Airport Sydney Kingsford Smith International Airport (YSSY)

Arrival

Time N/A
Airport Bathurst Airport (YBTH)
Time Latitude Longitude Altitude Speed Heading
2026-05-07 04:35 -33.93409 151.18825 26 ft 0 kts 189°
2026-05-07 04:50 -33.93434 151.18858 27 ft 9 kts 134°
2026-05-07 04:50 -33.93469 151.18859 26 ft 0 kts 193°
2026-05-07 04:50 -33.93523 151.18842 26 ft 17 kts 190°
2026-05-07 04:51 -33.93612 151.18905 25 ft 19 kts 121°
2026-05-07 04:51 -33.93678 151.18948 26 ft 0 kts 166°
2026-05-07 04:51 -33.93685 151.18950 22 ft 0 kts 166°
2026-05-07 04:51 -33.93687 151.18951 22 ft 1 kts 166°
2026-05-07 04:52 -33.93755 151.18959 20 ft 16 kts 216°
2026-05-07 04:52 -33.93766 151.18932 21 ft 0 kts 250°
2026-05-07 04:52 -33.93818 151.18710 22 ft 70 kts 253°
2026-05-07 04:52 -33.93994 151.17959 250 ft 117 kts 252°
2026-05-07 04:53 -33.94203 151.17104 882 ft 130 kts 251°
2026-05-07 04:53 -33.94472 151.16107 1853 ft 126 kts 252°
2026-05-07 04:53 -33.94649 151.15075 2685 ft 136 kts 260°
2026-05-07 04:53 -33.94756 151.13983 3597 ft 128 kts 259°
2026-05-07 04:54 -33.94850 151.12874 4341 ft 144 kts 258°
2026-05-07 04:54 -33.94638 151.11766 5282 ft 159 kts 303°
2026-05-07 04:54 -33.93342 151.11841 4179 ft 273 kts 51°
2026-05-07 04:54 -33.94084 151.13231 1800 ft 286 kts 207°